User: anonymous   Login
Location: Unspecified
(0.0000°N, 0.0000°E)
Time: 08:57:59
(UTC+00:00)
Language:

STARLINK-4076 - Orbit

View from above orbital plane
View from above orbital plane
View from above satellite
View from above satellite

Ground track
Ground track

The orbit is defined by the following mean orbital elements,

1 52667U          26145.36413926 +.00000000 +00000-0 -24220-3 0 00005
2 52667  53.2135 169.9174 0001199  65.1847 294.9269 15.08807473    09
Epoch (UTC): 25 May 2026 08:44:21
Eccentricity: 0.0001199
inclination: 53.2135°
perigee height: 539 km
apogee height: 541 km
right ascension of ascending node: 169.9174°
argument of perigee: 65.1847°
revolutions per day: 15.08807473
mean anomaly at epoch: 294.9269°

The dashed part of the orbit path shows where the satellite is in the earth's shadow,  

DLR